Durango, CO

11:59 AM MDT on June 25, 2017 (GMT -0600)
Durango-La Plata County

Weather History for KDRO - October, 2012

Change the Weather History Date:

Friday, October 5, 2012

  Actual Average Record
Temperature  
Mean Temperature 55 °F 51 °F  
Max Temperature 73 °F 68 °F 86 °F (1979)
Min Temperature 36 °F 35 °F 22 °F (2013)
Degree Days  
Heating Degree Days 10 14  
Month to date heating degree days 43 65  
Since 1 July heating degree days 182 289  
Cooling Degree Days 0 0  
Month to date cooling degree days 0 0  
Year to date cooling degree days 477 243  
Growing Degree Days 4 (Base 50)    
Moisture  
Dew Point 21 °F    
Average Humidity 35    
Maximum Humidity 56    
Minimum Humidity 14    
Precipitation  
Precipitation 0.00 in 0.05 in 1.55 in (1972)
Month to date precipitation 0.00 0.25  
Year to date precipitation 5.71 12.13  
Sea Level Pressure  
Sea Level Pressure 29.96 in    
Wind  
Wind Speed 10 mph (WNW)    
Max Wind Speed 26 mph    
Max Gust Speed 44 mph    
Visibility 10 miles    
Events      
T = Trace of Precipitation, MM = Missing Value Source: NWS Daily Summary

Daily Weather History Graph

Daily Weather History Graph

Search for Another Location

Airport or City:

Trip Planner

Search our weather history database for the weather conditions in past years. The results will help you decide how hot, cold, wet, or windy it might be!

Date:

Astronomy

Oct. 05, 2012 Rise Set
Actual Time 7:10 AM MDT 6:47 PM MDT
Civil Twilight 6:44 AM MDT 7:13 PM MDT
Nautical Twilight 6:14 AM MDT 7:43 PM MDT
Astronomical Twilight 5:43 AM MDT 8:13 PM MDT
Moon 10:19 PM MDT (10/5) 12:14 PM MDT (10/5)
Length of Visible Light 12h 29m
Length of Day
11h 37m
Waning Gibbous, 73% of the Moon is Illuminated
Oct 5
Waning Gibbous
Oct 8
Last Quarter
Oct 15
New
Oct 21
First Quarter
Oct 29
Full

Hourly Weather History & Observations

Time (MDT) Temp. Windchill Dew Point Humidity Pressure Visibility Wind Dir Wind Speed Gust Speed Precip Events Conditions
12:53 AM 46.9 °F - 21.9 °F 37% 29.95 in 10.0 mi North 6.9 mph - N/A   Clear
1:53 AM 46.0 °F 43.9 °F 21.9 °F 39% 29.97 in 10.0 mi North 4.6 mph - N/A   Clear
2:53 AM 44.1 °F - 21.9 °F 42% 29.98 in 10.0 mi Calm Calm - N/A   Clear
3:53 AM 43.0 °F 41.3 °F 23.0 °F 45% 29.97 in 10.0 mi North 3.5 mph - N/A   Clear
4:53 AM 43.0 °F 38.8 °F 23.0 °F 45% 29.98 in 10.0 mi North 6.9 mph - N/A   Clear
5:53 AM 37.9 °F 34.4 °F 23.0 °F 55% 30.01 in 10.0 mi NNE 4.6 mph - N/A   Clear
6:53 AM 36.0 °F 31.1 °F 21.0 °F 55% 30.05 in 10.0 mi North 5.8 mph - N/A   Clear
7:53 AM 39.9 °F - 21.9 °F 49% 30.08 in 10.0 mi Calm Calm - N/A   Clear
8:53 AM 51.1 °F - 25.0 °F 36% 30.05 in 10.0 mi Calm Calm - N/A   Clear
9:53 AM 57.0 °F - 27.0 °F 32% 30.04 in 10.0 mi NE 3.5 mph - N/A   Clear
11:53 AM 68.0 °F - 21.9 °F 17% 29.97 in 10.0 mi WSW 19.6 mph 25.3 mph N/A   Clear
12:53 PM 70.0 °F - 19.9 °F 15% 29.96 in 10.0 mi West 19.6 mph 29.9 mph N/A   Clear
1:53 PM 71.1 °F - 19.9 °F 14% 29.92 in 10.0 mi WSW 21.9 mph 31.1 mph N/A   Clear
2:53 PM 70.0 °F - 21.0 °F 16% 29.92 in 10.0 mi WSW 13.8 mph 25.3 mph N/A   Clear
3:53 PM 71.1 °F - 21.0 °F 15% 29.91 in 10.0 mi West 20.7 mph 29.9 mph N/A   Clear
4:53 PM 71.1 °F - 19.9 °F 14% 29.91 in 10.0 mi WSW 20.7 mph 28.8 mph N/A   Clear
5:53 PM 68.0 °F - 19.9 °F 16% 29.95 in 10.0 mi WSW 20.7 mph 28.8 mph N/A   Clear
7:53 PM 62.1 °F - 14.0 °F 15% 29.98 in 10.0 mi West 10.4 mph - N/A   Clear
8:53 PM 60.1 °F - 18.0 °F 20% 29.94 in 10.0 mi West 11.5 mph - N/A   Clear
9:53 PM 59.0 °F - 19.9 °F 22% 29.91 in 10.0 mi WSW 4.6 mph - N/A   Clear
10:53 PM 59.0 °F - 19.9 °F 22% 29.86 in 10.0 mi Variable 3.5 mph - N/A   Clear
11:53 PM 55.9 °F - 19.9 °F 25% 29.87 in 10.0 mi West 5.8 mph - N/A   Clear